TimeEDT,TemperatureF,Dew PointF,Humidity,Sea Level PressureIn,VisibilityMPH,Wind Direction,Wind SpeedMPH,Gust SpeedMPH,PrecipitationIn,Events,Conditions,WindDirDegrees,DateUTC
12:53 AM,62.1,48.0,60,29.85,10.0,NNW,4.6,-,N/A,,Clear,330,2012-03-26 04:53:00
1:53 AM,62.1,48.0,60,29.84,10.0,NNW,6.9,-,N/A,,Clear,340,2012-03-26 05:53:00
2:53 AM,60.1,48.0,64,29.85,10.0,NNW,4.6,-,N/A,,Clear,330,2012-03-26 06:53:00
3:53 AM,59.0,48.0,67,29.86,10.0,NNW,3.5,-,N/A,,Clear,330,2012-03-26 07:53:00
4:53 AM,60.1,48.0,64,29.87,10.0,NNW,3.5,-,N/A,,Clear,330,2012-03-26 08:53:00
5:53 AM,59.0,48.0,67,29.88,10.0,North,6.9,-,N/A,,Clear,350,2012-03-26 09:53:00
6:53 AM,59.0,46.0,62,29.90,10.0,NNW,5.8,-,N/A,,Clear,340,2012-03-26 10:53:00
7:53 AM,55.0,46.9,74,29.95,10.0,Calm,Calm,-,N/A,,Clear,0,2012-03-26 11:53:00
8:53 AM,62.1,50.0,65,29.97,10.0,WNW,3.5,-,N/A,,Clear,290,2012-03-26 12:53:00
9:53 AM,66.9,46.0,47,29.97,10.0,Variable,4.6,-,N/A,,Clear,0,2012-03-26 13:53:00
10:53 AM,70.0,45.0,41,29.98,10.0,Variable,5.8,-,N/A,,Clear,0,2012-03-26 14:53:00
11:53 AM,73.4,44.6,36,30.01,10.0,Calm,Calm,-,N/A,,Clear,0,2012-03-26 15:53:00
12:53 PM,75.0,43.0,32,29.97,10.0,Variable,3.5,-,N/A,,Clear,0,2012-03-26 16:53:00
1:53 PM,75.9,39.9,27,29.96,10.0,North,4.6,-,N/A,,Clear,360,2012-03-26 17:53:00
2:53 PM,80.1,42.1,26,29.93,10.0,Variable,3.5,-,N/A,,Clear,0,2012-03-26 18:53:00
3:53 PM,80.1,42.1,26,29.92,10.0,West,8.1,-,N/A,,Clear,280,2012-03-26 19:53:00
4:53 PM,80.1,39.0,23,29.91,10.0,NNW,10.4,-,N/A,,Clear,330,2012-03-26 20:53:00
5:53 PM,79.0,33.1,19,29.91,10.0,North,9.2,21.9,N/A,,Clear,350,2012-03-26 21:53:00
6:53 PM,75.9,39.9,27,29.93,10.0,North,10.4,16.1,N/A,,Clear,350,2012-03-26 22:53:00
7:53 PM,71.1,42.1,35,29.96,10.0,North,5.8,-,N/A,,Clear,10,2012-03-26 23:53:00
8:53 PM,69.1,42.1,38,29.98,10.0,NNE,6.9,-,N/A,,Clear,20,2012-03-27 00:53:00
9:53 PM,68.0,43.0,40,30.00,10.0,North,6.9,-,N/A,,Clear,360,2012-03-27 01:53:00
10:53 PM,68.0,44.1,42,30.02,10.0,NE,6.9,-,N/A,,Clear,40,2012-03-27 02:53:00
11:53 PM,64.9,45.0,48,30.04,10.0,ENE,3.5,-,N/A,,Clear,60,2012-03-27 03:53:00